Weather History for Elmira, NY

Change the Weather History Date:

Tuesday, November 26, 2013

  Actual Average Record
Temperature  
Mean Temperature 33 °F -  
Max Temperature 35 °F 44 °F 67 °F (1979)
Min Temperature 30 °F 27 °F 3 °F (1938)
Degree Days  
Heating Degree Days 32    
Moisture  
Dew Point 28 °F    
Average Humidity 83    
Maximum Humidity 93    
Minimum Humidity 35    
Precipitation  
Precipitation 0.60 in - - ()
Sea Level Pressure  
Sea Level Pressure 30.04 in    
Wind  
Wind Speed 5 mph (East)    
Max Wind Speed 13 mph    
Max Gust Speed -    
Visibility 4 miles    
Events Rain , Snow    
Averages and records for this station are not official NWS values.
T = Trace of Precipitation, MM = Missing Value Source: NWS Daily Summary

Daily Weather History Graph

Daily Weather History Graph

Search for Another Location

Airport:

Trip Planner

Search our weather history database for the weather conditions in past years. The results will help you decide how hot, cold, wet, or windy it might be!

Date:

Astronomy

Nov. 26, 2013 Rise Set
Actual Time 7:11 AM EST 4:38 PM EST
Civil Twilight 6:40 AM EST 5:09 PM EST
Nautical Twilight 6:05 AM EST 5:43 PM EST
Astronomical Twilight 5:32 AM EST 6:17 PM EST
Moon 12:05 AM EST (11/26) 12:50 PM EST (11/26)
Length of Visible Light 10h 29m
Length of Day
9h 27m
Last Quarter, 41% of the Moon is Illuminated
Nov 26
Last Quarter
Dec 2
New
Dec 9
First Quarter
Dec 17
Full
Dec 25
Last Quarter

Hourly Weather History & Observations

Time (EST) Temp. Windchill Dew Point Humidity Pressure Visibility Wind Dir Wind Speed Gust Speed Precip Events Conditions
12:53 AM 34.0 °F 26.6 °F 9.0 °F 35% 30.19 in 10.0 mi SW 9.2 mph - N/A   Overcast
1:53 AM 34.0 °F 25.0 °F 15.1 °F 46% 30.18 in 10.0 mi SW 12.7 mph - N/A   Overcast
2:53 AM 34.0 °F 28.8 °F 16.0 °F 48% 30.17 in 10.0 mi SW 5.8 mph - N/A   Overcast
3:30 AM 32.0 °F 23.6 °F 23.0 °F 69% 30.15 in 2.5 mi SW 10.4 mph - 0.00 in Snow Light Snow
3:41 AM 30.2 °F 21.3 °F 24.8 °F 80% 30.17 in 1.2 mi SW 10.4 mph - 0.00 in Snow Light Snow
3:53 AM 30.9 °F 25.2 °F 27.0 °F 85% 30.20 in 1.2 mi WSW 5.8 mph - 0.00 in Snow Light Snow
4:23 AM 30.2 °F - 26.6 °F 86% 30.16 in 1.0 mi Calm Calm - 0.01 in Snow Light Snow
4:36 AM 30.2 °F - 28.4 °F 93% 30.15 in 1.2 mi Calm Calm - 0.02 in Snow Light Snow
4:53 AM 30.0 °F - 28.0 °F 92% 30.19 in 2.5 mi Calm Calm - 0.02 in Snow Light Snow
4:57 AM 30.2 °F - 28.4 °F 93% 30.16 in 3.0 mi Calm Calm - 0.00 in Snow Light Snow
5:53 AM 30.9 °F 24.3 °F 25.0 °F 79% 30.21 in 10.0 mi SW 6.9 mph - 0.00 in   Overcast
6:53 AM 30.0 °F - 25.0 °F 82% 30.20 in 10.0 mi Calm Calm - N/A   Overcast
7:31 AM 30.2 °F - 24.8 °F 80% 30.18 in 10.0 mi Calm Calm - N/A   Overcast
7:53 AM 30.9 °F - 26.1 °F 82% 30.22 in 10.0 mi Calm Calm - N/A   Overcast
8:01 AM 30.2 °F - 26.6 °F 86% 30.18 in 10.0 mi Calm Calm - N/A   Overcast
8:53 AM 32.0 °F - 26.1 °F 79% 30.22 in 10.0 mi Calm Calm - N/A   Overcast
9:13 AM 33.8 °F - 26.6 °F 75% 30.18 in 10.0 mi Calm Calm - N/A   Overcast
9:53 AM 32.0 °F 25.6 °F 26.1 °F 79% 30.20 in 10.0 mi ESE 6.9 mph - N/A   Overcast
10:53 AM 33.1 °F 30.0 °F 26.1 °F 75% 30.20 in 10.0 mi Variable 3.5 mph - N/A   Overcast
11:53 AM 34.0 °F 29.8 °F 27.0 °F 75% 30.17 in 1.5 mi ESE 4.6 mph - 0.00 in Snow Light Snow
12:32 PM 33.8 °F - 28.4 °F 81% 30.13 in 1.5 mi Calm Calm - 0.00 in Snow Light Snow
12:53 PM 33.1 °F 30.0 °F 28.9 °F 85% 30.15 in 1.5 mi ESE 3.5 mph - 0.01 in Snow Light Snow
12:55 PM 33.8 °F 30.8 °F 28.4 °F 81% 30.12 in 1.0 mi SE 3.5 mph - 0.00 in Snow Light Snow
1:01 PM 33.8 °F 30.8 °F 28.4 °F 81% 30.11 in 1.0 mi ESE 3.5 mph - 0.00 in Snow Light Snow
1:12 PM 33.8 °F 29.6 °F 28.4 °F 81% 30.11 in 1.0 mi ESE 4.6 mph - 0.00 in Snow Light Snow
1:53 PM 33.1 °F 30.0 °F 28.9 °F 85% 30.12 in 1.0 mi Variable 3.5 mph - 0.02 in Snow Light Snow
2:24 PM 32.0 °F 28.7 °F 28.4 °F 87% 30.08 in 1.0 mi ENE 3.5 mph - 0.01 in Snow Light Snow
2:53 PM 33.1 °F 30.0 °F 28.9 °F 85% 30.10 in 1.0 mi East 3.5 mph - 0.02 in Snow Light Snow
3:53 PM 32.0 °F 27.5 °F 28.0 °F 85% 30.07 in 1.0 mi East 4.6 mph - 0.03 in Snow Light Snow
3:56 PM 32.0 °F - 28.4 °F 87% 30.04 in 0.8 mi Calm Calm - 0.00 in Snow Light Snow
4:04 PM 32.0 °F - 28.4 °F 87% 30.04 in 0.8 mi Calm Calm - 0.01 in Snow Light Snow
4:53 PM 32.0 °F 27.5 °F 28.9 °F 88% 30.04 in 1.5 mi North 4.6 mph - 0.04 in Snow Light Snow
5:20 PM 33.8 °F - 28.4 °F 81% 30.00 in 2.0 mi Calm Calm - 0.02 in Rain Light Freezing Rain
5:53 PM 33.1 °F 30.0 °F 28.9 °F 85% 30.04 in 2.0 mi SSE 3.5 mph - 0.05 in Rain Light Freezing Rain
6:45 PM 33.8 °F 30.8 °F 30.2 °F 87% 29.97 in 2.0 mi ESE 3.5 mph - 0.04 in Rain Light Freezing Rain
6:53 PM 34.0 °F - 30.0 °F 85% 30.00 in 2.0 mi Calm Calm - 0.05 in Rain Light Freezing Rain
7:02 PM 33.8 °F - 30.2 °F 87% 29.97 in 2.5 mi Calm Calm - 0.01 in Rain Light Freezing Rain
7:10 PM 33.8 °F - 30.2 °F 87% 29.97 in 2.5 mi Calm Calm - 0.02 in Rain Light Freezing Rain
7:17 PM 33.8 °F - 30.2 °F 87% 29.97 in 4.0 mi Calm Calm - 0.02 in Rain Light Freezing Rain
7:24 PM 33.8 °F 30.8 °F 30.2 °F 87% 29.96 in 5.0 mi NE 3.5 mph - 0.03 in Rain Light Freezing Rain
7:53 PM 34.0 °F - 30.0 °F 85% 29.97 in 6.0 mi Calm Calm - 0.05 in Rain Light Freezing Rain
8:04 PM 33.8 °F - 30.2 °F 87% 29.93 in 7.0 mi Calm Calm - 0.01 in Rain Light Rain
8:15 PM 35.6 °F 32.8 °F 30.2 °F 81% 29.92 in 6.0 mi Variable 3.5 mph - 0.02 in Rain Light Freezing Rain
8:34 PM 33.8 °F 29.6 °F 30.2 °F 87% 29.90 in 6.0 mi North 4.6 mph - 0.03 in Rain Light Rain
8:41 PM 33.8 °F - 30.2 °F 87% 29.90 in 6.0 mi Calm Calm - 0.04 in Rain Light Freezing Rain
8:53 PM 34.0 °F 29.8 °F 30.9 °F 89% 29.91 in 5.0 mi North 4.6 mph - 0.06 in Rain Light Freezing Rain
9:09 PM 33.8 °F 29.6 °F 32.0 °F 93% 29.88 in 5.0 mi NNE 4.6 mph - 0.01 in Rain Light Freezing Rain
9:53 PM 36.0 °F 32.1 °F 32.0 °F 86% 29.86 in 5.0 mi East 4.6 mph - 0.09 in Rain Light Freezing Rain
10:53 PM 35.1 °F - 33.1 °F 92% 29.84 in 2.5 mi Calm Calm - 0.16 in Rain Light Freezing Rain
11:01 PM 33.8 °F 30.8 °F 32.0 °F 93% 29.80 in 3.0 mi NNE 3.5 mph - 0.02 in Rain Light Freezing Rain
11:10 PM 33.8 °F 28.6 °F 32.0 °F 93% 29.79 in 2.5 mi NNE 5.8 mph - 0.05 in Rain Light Freezing Rain
11:14 PM 33.8 °F 29.6 °F 32.0 °F 93% 29.79 in 3.0 mi NNE 4.6 mph - 0.06 in Rain Rain
11:24 PM 33.8 °F 28.6 °F 32.0 °F 93% 29.77 in 3.0 mi NNE 5.8 mph - 0.09 in Rain Light Freezing Rain
11:31 PM 35.6 °F 30.7 °F 32.0 °F 87% 29.76 in 4.0 mi NNE 5.8 mph - 0.12 in Rain Light Freezing Rain
11:54 PM 35.6 °F 28.6 °F 32.0 °F 87% 29.71 in 2.5 mi NE 9.2 mph - 0.17 in Rain Rain